www.pogodaiklimat.ru

Погода и климат >> Архив погоды >> Бельгия >> Дурб


ПОГОДА в Дурбе

  • Прогноз погоды в Дурбе
  • Монитор погоды в Дурбе

АРХИВ ПОГОДЫ в Дурбе

Время (UTC), дата Ветер
(напр.,м/с)
 
Видим.   Явления Облачность Т
(С)
Тd
(С)
f
(%)
Тe
(С)
Тes
(С)
Комфортность P
(гПа)
Po
(гПа)
Тmin
(С)
Tmax
(С)
R
(мм)
R24
(мм)
S
(см)
13 13.06 Ю 7 н/о н/о +17.9 +11.1 64 +17 +17 1010.9 983.5 196
14 13.06 Ю 6 н/о н/о +16.9 +11.4 70 +16 +16 1011.4 983.8 101
15 13.06 Ю 5 н/о н/о +16.0 +12.1 78 +15 +15 1011.2 983.5 82
16 13.06 Ю 5 н/о н/о +14.7 +11.8 83 +13 +13 1011.7 983.9 49
17 13.06 Ю 5 н/о н/о +16.1 +12.4 79 +15 +15 1010.7 983.1 115
18 13.06 Ю 5
{12}
н/о н/о +16.5 +11.0 70 +16 +16 1011.2 983.6 +17.9 1 73
19 13.06 Ю 3 н/о н/о +15.8 +10.9 73 +15 +15 1011.4 983.7 15
20 13.06 Ю 4 н/о н/о +14.9 +10.8 76 +14 +14 1011.8 984.0
21 13.06 Ю 2 н/о н/о +14.0 +10.6 80 +13 +13 1012.8 984.9
22 13.06 ЮВ 1 н/о н/о +13.0 +10.3 84 +13 +13 1013.1 985.1
23 13.06 ЮВ 1 н/о н/о +12.1 +10.3 89 +12 +12 1013.2 985.1
00 14.06 ЮВ 1 н/о н/о +12.5 +10.1 85 +12 +12 1013.1 985.0 132
01 14.06 В 1 н/о н/о +11.1 +10.0 93 +11 +11 1012.6 984.5
02 14.06 штиль 0 н/о н/о +10.3 +9.8 97 +9 +9 1012.5 984.3
03 14.06 СВ 1 н/о н/о +10.3 +10.0 98 +10 +10 1012.3 984.0
04 14.06 штиль 0 н/о н/о +9.5 +9.3 99 +9 +9 1013.3 985.0
05 14.06 Ю 1 н/о н/о +10.5 +10.4 99 +10 +10 1013.9 985.6 3
06 14.06 З 2
{6}
н/о н/о +11.6 +11.4 99 +10 +10 1014.0 985.8 +9.5 4
07 14.06 В 2 н/о н/о +11.9 +11.8 99 +11 +11 1013.0 985.0 8
08 14.06 ЮВ 2 н/о н/о +15.4 +13.2 87 +15 +15 1013.3 985.6 87
09 14.06 Ю 6
{9}
н/о н/о +17.2 +11.7 70 +16 +16 1013.9 986.2 143
10 14.06 Ю 4 н/о н/о +19.8 +13.4 67 +22 +22 комфорт 1013.7 986.4 167
11 14.06 ЮЗ 3 н/о н/о +19.9 +13.7 67 +22 +22 комфорт 1014.0 986.6 156
13 14.06 ЮЗ 3 н/о н/о +22.4 +13.3 56 +25 +25 комфорт 1013.0 985.9 234
14 14.06 Ю 3 н/о н/о +22.0 +12.5 55 +25 +25 комфорт 1012.5 985.4 167
15 14.06 Ю 2 н/о н/о +23.1 +13.0 53 +26 +26 жарко 1011.8 984.9 123
16 14.06 СЗ 2 н/о н/о +23.2 +14.7 59 +27 +27 душно 1011.4 984.4 118
17 14.06 С 1 н/о н/о +23.3 +13.6 54 +27 +27 душно 1010.9 984.0 119
18 14.06 С 1
{7}
н/о н/о +22.5 +13.8 58 +26 +26 жарко 1010.9 983.8 +23.5 62
19 14.06 СЗ 1 н/о н/о +20.5 +14.2 67 +24 +24 комфорт 1011.0 983.7 13
20 14.06 С 1 н/о н/о +19.2 +14.3 73 +22 +22 комфорт 1011.3 983.9
21 14.06 ЮВ 1 н/о н/о +18.5 +14.9 80 +20 +20 1012.1 984.7
22 14.06 ЮВ 1 н/о н/о +16.3 +15.6 96 +17 +17 1011.8 984.2
23 14.06 С 1 н/о н/о +15.8 +15.5 98 +16 +16 1010.4 982.8
00 15.06 ЮВ 1
{8}
н/о н/о +15.8 +15.8 100 +16 +16 1010.7 983.1 162
01 15.06 Ю 1 н/о н/о +15.6 +15.6 100 +16 +16 1010.6 983.0
02 15.06 Ю 1 н/о н/о +15.5 +15.5 100 +16 +16 1010.2 982.6
03 15.06 Ю 1 н/о н/о +15.5 +15.5 100 +16 +16 1010.6 983.0
04 15.06 ЮЗ 1 н/о н/о +15.3 +15.3 100 +16 +16 1010.9 983.3
05 15.06 ЮЗ 1 н/о н/о +15.2 +15.2 100 +16 +16 1011.4 983.7
06 15.06 ЮЗ 1
{4}
н/о н/о +15.3 +15.3 100 +16 +16 1011.8 984.1 +15.2 7
07 15.06 ЮЗ 2 н/о н/о +15.7 +15.7 100 +16 +16 1012.5 984.9 21
08 15.06 ЮЗ 3 н/о н/о +16.0 +15.8 99 +15 +15 1013.2 985.5 53
09 15.06 ЮЗ 4
{7}
н/о н/о +18.3 +15.9 86 +19 +19 1013.5 986.0 160
10 15.06 ЮЗ 5 н/о н/о +19.5 +12.8 65 +21 +21 комфорт 1014.0 986.6 197
11 15.06 ЮЗ 6 н/о н/о +20.1 +11.1 56 +21 +21 комфорт 1014.4 987.1 243
12 15.06 ЮЗ 5 н/о н/о +20.6 +11.1 54 +22 +22 комфорт 1014.9 987.5 248
13 15.06 Ю 5 н/о н/о +20.3 +12.3 60 +22 +22 комфорт 1014.7 987.5 164
14 15.06 ЮЗ 4 н/о н/о +21.1 +13.1 60 +23 +23 комфорт 1014.8 987.5 172
15 15.06 ЮЗ 4 н/о н/о +20.9 +12.0 57 +23 +23 комфорт 1015.0 987.7 148
16 15.06 ЮЗ 4 н/о н/о +20.7 +11.6 56 +23 +23 комфорт 1015.0 987.7 138
17 15.06 ЮЗ 4 н/о н/о +19.9 +10.8 56 +21 +21 комфорт 1015.0 987.6 86
18 15.06 З 2
{10}
н/о н/о +19.4 +11.2 59 +21 +21 комфорт 1015.4 987.9 +21.4 85
19 15.06 ЮЗ 2 н/о н/о +18.1 +10.9 63 +19 +19 1015.8 988.2 27
20 15.06 ЮЗ 2 н/о н/о +16.2 +10.5 69 +16 +16 1016.3 988.5 3
21 15.06 ЮЗ 2 н/о н/о +14.5 +10.1 75 +14 +14 1017.1 989.1
22 15.06 ЮЗ 2 н/о н/о +14.5 +10.5 77 +14 +14 1017.4 989.4
23 15.06 ЮЗ 2 н/о н/о +14.5 +10.6 77 +14 +14 1018.0 990.0
00 16.06 Ю 1 н/о н/о +13.6 +10.2 80 +14 +14 1018.6 990.5 175
01 16.06 Ю 2 н/о н/о +12.4 +9.7 84 +11 +11 1018.6 990.4
02 16.06 ЮЗ 2 н/о н/о +11.5 +9.9 90 +10 +10 1018.9 990.6
03 16.06 ЮЗ 2 н/о н/о +12.4 +10.4 88 +11 +11 1019.1 990.8
04 16.06 ЮЗ 2 н/о н/о +12.1 +10.3 89 +11 +11 1019.1 990.9
05 16.06 ЮЗ 2 н/о н/о +12.8 +11.1 89 +12 +12 1019.4 991.3 11
06 16.06 ЮЗ 3
{6}
н/о н/о +14.7 +12.3 86 +14 +14 1019.6 991.7 +11.5 49
07 16.06 ЮЗ 3 н/о н/о +15.5 +12.5 82 +15 +15 1019.9 992.0 81
08 16.06 Ю 4 н/о н/о +15.9 +12.6 81 +15 +15 1020.2 992.3 81
09 16.06 ЮЗ 3
{8}
н/о н/о +16.1 +12.4 79 +16 +16 1020.5 992.6 89
10 16.06 ЮЗ 3 н/о н/о +16.7 +12.1 74 +16 +16 1020.7 992.9 97
11 16.06 Ю 4 н/о н/о +18.9 +12.4 66 +20 +20 1020.6 993.0 162
12 16.06 З 3 н/о н/о +19.0 +11.8 63 +20 +20 1020.5 992.9 164
13 16.06 З 2 н/о н/о +18.5 +12.3 67 +20 +20 1020.5 992.9 123
14 16.06 З 2 н/о н/о +19.3 +12.7 66 +21 +21 комфорт 1020.5 992.9 82
15 16.06 ЮЗ 2 н/о н/о +19.4 +12.0 62 +21 +21 комфорт 1020.2 992.6 63
16 16.06 Ю 3 н/о н/о +20.2 +11.8 58 +22 +22 комфорт 1020.1 992.6 143
17 16.06 ЮЗ 3 н/о н/о +19.5 +11.3 59 +21 +21 комфорт 1020.2 992.7 85
18 16.06 Ю 3
{6}
н/о н/о +19.4 +12.0 62 +21 +21 комфорт 1020.4 992.8 +21.2 85
19 16.06 ЮЗ 1 н/о н/о +18.6 +12.8 69 +20 +20 1020.3 992.7 28
20 16.06 В 1 н/о н/о +16.8 +13.0 78 +18 +18 1020.6 992.7 3
21 16.06 В 1 н/о н/о +14.8 +12.6 87 +15 +15 1021.1 993.1
22 16.06 ЮВ 1 н/о н/о +14.1 +12.5 90 +14 +14 1021.1 993.0
23 16.06 ЮВ 1 н/о н/о +13.0 +12.0 94 +13 +13 1021.1 992.9
00 17.06 В 1 н/о н/о +12.3 +11.9 97 +12 +12 1021.2 992.9 135
01 17.06 В 1 н/о н/о +11.2 +10.9 98 +11 +11 1021.2 992.8
02 17.06 СВ 1 н/о н/о +11.0 +11.0 100 +11 +11 1021.0 992.6
03 17.06 В 1 н/о н/о +10.5 +10.5 100 +10 +10 1020.9 992.4
04 17.06 ЮВ 1 н/о н/о +9.6 +9.6 100 +9 +9 1021.0 992.5
05 17.06 штиль 0 н/о н/о +10.4 +10.4 100 +10 +10 1020.9 992.5 13
06 17.06 штиль 0
{2}
н/о н/о +11.7 +11.5 99 +11 +11 1020.8 992.5 +9.6 52
07 17.06 Ю 1 н/о н/о +15.2 +13.9 92 +16 +16 1020.4 992.5 100
08 17.06 Ю 1 н/о н/о +18.8 +14.5 76 +21 +21 комфорт 1020.0 992.4 127
09 17.06 Ю 3
{5}
н/о н/о +21.1 +13.3 61 +23 +23 комфорт 1019.6 992.2 172
10 17.06 Ю 2 н/о н/о +21.6 +12.7 57 +24 +24 комфорт 1019.0 991.8 188
11 17.06 З 2 н/о н/о +22.8 +12.3 52 +26 +26 жарко 1018.7 991.5 208
12 17.06 СЗ 1 н/о н/о +23.5 +13.4 53 +26 +26 жарко 1018.0 991.0 246
13 17.06 Ю 1 н/о н/о +23.9 +12.0 47 +26 +26 жарко 1017.7 990.5 234
14 17.06 З 1 н/о н/о +24.9 +13.1 48 +27 +27 жарко 1017.0 990.0 231
15 17.06 З 1 н/о н/о +24.5 +12.8 48 +26 +26 жарко 1016.8 989.7 150
16 17.06 СЗ 2 н/о н/о +24.5 +13.4 50 +27 +27 жарко 1016.5 989.5 156
17 17.06 СЗ 1 н/о н/о +24.7 +13.5 50 +27 +27 жарко 1016.2 989.2 85
18 17.06 СЗ 1
{4}
н/о н/о +24.8 +13.1 48 +27 +27 жарко 1015.9 988.9 +25.2 82
19 17.06 СЗ 1 н/о н/о +22.2 +14.5 62 +26 +26 душно 1016.0 988.8 25
20 17.06 С 1 н/о н/о +20.2 +14.0 68 +24 +24 комфорт 1016.1 988.7 5
21 17.06 Ю 1 н/о н/о +18.0 +14.6 81 +19 +19 1016.5 988.9
22 17.06 ЮВ 1 н/о н/о +16.3 +14.6 90 +17 +17 1016.7 988.9
23 17.06 штиль 0 н/о н/о +15.1 +14.2 94 +15 +15 1016.8 989.0
00 18.06 штиль 0 н/о н/о +14.3 +13.8 97 +14 +14 1016.6 988.7 208
01 18.06 В 1 н/о н/о +13.7 +13.5 99 +14 +14 1016.2 988.2
02 18.06 В 1 н/о н/о +13.4 +13.3 99 +13 +13 1015.9 987.9
03 18.06 штиль 0 н/о н/о +12.9 +12.8 99 +12 +12 1015.7 987.7
04 18.06 штиль 0 н/о н/о +12.5 +12.5 100 +12 +12 1015.5 987.4
05 18.06 В 1 н/о н/о +12.9 +12.9 100 +13 +13 1015.4 987.4 12
06 18.06 В 1
{1}
н/о н/о +15.8 +15.3 97 +16 +16 1014.9 987.2 +12.4 47
07 18.06 ЮВ 1 н/о н/о +17.8 +16.1 90 +19 +19 1014.9 987.4 87
08 18.06 В 1 н/о н/о +20.9 +17.0 78 +26 +26 душно 1014.2 986.9 106
09 18.06 С 1
{3}
н/о н/о +22.7 +16.7 69 +27 +27 душно 1013.7 986.7 167
10 18.06 С 2 н/о н/о +23.9 +15.0 57 +27 +27 жарко 1013.4 986.5 193
11 18.06 СВ 1 н/о н/о +24.7 +13.6 50 +27 +27 жарко 1013.1 986.2 189
12 18.06 СВ 1 н/о н/о +25.2 +14.1 50 +28 +28 жарко 1012.8 985.9 183
13 18.06 З 1 н/о н/о +26.0 +14.3 48 +28 +28 жарко 1012.3 985.5 208
14 18.06 ЮЗ 1 н/о н/о +26.3 +14.0 47 +29 +29 жарко 1011.7 985.0 198
15 18.06 ЮВ 1 н/о н/о +25.9 +12.9 45 +28 +28 жарко 1011.2 984.5 167
16 18.06 ЮЗ 1 н/о н/о +26.5 +13.0 43 +28 +28 жарко 1010.8 984.1 148
17 18.06 ЮВ 1 н/о н/о +26.0 +12.1 42 +27 +27 жарко 1010.4 983.7 113
18 18.06 ЮВ 2
{4}
н/о н/о +24.9 +13.0 48 +27 +27 жарко 1010.2 983.4 +26.7 62
19 18.06 ЮВ 2 н/о н/о +23.8 +12.5 49 +26 +26 жарко 1010.4 983.4 17
20 18.06 ЮВ 1 н/о н/о +21.3 +13.4 61 +24 +24 комфорт 1010.6 983.4 3
21 18.06 В 1 н/о н/о +19.1 +13.8 71 +21 +21 комфорт 1010.6 983.3
22 18.06 В 1 н/о н/о +17.8 +14.0 78 +19 +19 1010.2 982.8
23 18.06 СВ 1 н/о н/о +16.8 +14.2 85 +18 +18 1009.6 982.1
00 19.06 СВ 1 н/о н/о +16.7 +14.0 84 +18 +18 1009.1 981.5 190
01 19.06 СВ 2 н/о н/о +17.0 +14.2 84 +17 +17 1008.4 981.0
02 19.06 СВ 2 н/о н/о +17.2 +14.3 83 +18 +18 1007.8 980.4
03 19.06 СВ 2 н/о н/о +17.0 +14.6 86 +17 +17 1007.4 980.0
04 19.06 В 1 н/о н/о +17.5 +15.1 86 +19 +19 1006.7 979.4
05 19.06 З 1 н/о н/о +17.2 +15.0 87 +18 +18 1006.5 979.2 14
06 19.06 Ю 2
{5}
н/о н/о +20.1 +15.3 74 +23 +23 комфорт 1006.5 979.4 +16.5 47
07 19.06 Ю 3 н/о н/о +21.6 +16.2 71 +25 +25 комфорт 1006.7 979.7 83
08 19.06 Ю 3 н/о н/о +21.1 +16.2 74 +24 +24 комфорт 1007.4 980.4 67
09 19.06 Ю 3
{8}
н/о н/о +23.7 +17.5 68 +28 +28 душно 1007.3 980.5
10 19.06 Ю 2 н/о н/о +22.2 +17.2 73 +27 +27 душно 1007.3 980.5 75
11 19.06 СЗ 1 н/о н/о +24.8 +16.0 58 +28 +28 жарко 1007.1 980.5 196
12 19.06 Ю 3 н/о н/о +26.0 +15.2 51 +29 +29 душно 1007.1 980.4 218
13 19.06 Ю 5 н/о н/о +26.0 +15.1 51 +29 +29 душно 1006.7 980.1 186
14 19.06 ЮЗ 4 н/о н/о +23.3 +15.3 61 +28 +28 душно 1007.3 980.5 91
15 19.06 В 2 н/о н/о +18.3 +16.7 90 +19 +19 1007.1 979.8 46
16 19.06 СЗ 3 н/о н/о +16.6 +15.3 92 +16 +16 1008.4 981.0 41
17 19.06 ЮЗ 1 н/о н/о +17.9 +16.5 92 +19 +19 1007.7 980.4 73
18 19.06 ЮВ 1
{14}
н/о н/о +18.8 +17.1 90 +21 +21 комфорт 1007.6 980.4 +26.4 65
19 19.06 В 1 н/о н/о +19.4 +17.7 90 +23 +23 комфорт 1007.9 980.7 38
20 19.06 З 3 н/о н/о +16.3 +15.3 94 +16 +16 1009.3 981.7
21 19.06 Ю 2 н/о н/о +15.5 +15.1 97 +15 +15 1009.4 981.8
22 19.06 ЮЗ 2 н/о н/о +15.0 +14.7 98 +15 +15 1009.9 982.2
23 19.06 ЮЗ 2 н/о н/о +14.9 +14.7 99 +15 +15 1010.5 982.8
00 20.06 ЮЗ 1
{8}
н/о н/о +14.6 +14.6 100 +15 +15 1010.7 983.0 138
01 20.06 ЮЗ 2 н/о н/о +13.9 +13.9 100 +13 +13 1010.5 982.7
02 20.06 З 1 н/о н/о +13.9 +13.9 100 +14 +14 1010.9 983.1
03 20.06 З 1 н/о н/о +13.8 +13.8 100 +14 +14 1011.2 983.4
04 20.06 Ю 1 н/о н/о +13.9 +13.9 100 +14 +14 1011.6 983.8
05 20.06 Ю 1 н/о н/о +14.0 +14.0 100 +14 +14 1011.7 983.8 3
06 20.06 Ю 1
{3}
н/о н/о +14.3 +14.3 100 +15 +15 1011.9 984.1 +13.6 8 31
07 20.06 ЮЗ 1 н/о н/о +15.4 +15.2 99 +16 +16 1011.9 984.2 43
08 20.06 ЮЗ 1 н/о н/о +15.3 +14.8 97 +16 +16 1012.3 984.5 42
09 20.06 ЮЗ 2
{3}
н/о н/о +15.3 +14.9 97 +15 +15 1012.4 984.7 35
10 20.06 З 1 н/о н/о +15.6 +15.1 97 +16 +16 1012.7 985.0 45
11 20.06 З 2 н/о н/о +15.9 +15.2 96 +16 +16 1013.0 985.4 81
12 20.06 ЮЗ 2 н/о н/о +17.4 +15.5 89 +18 +18 1013.2 985.7 117

 

Местоположение метеостанции Дурб (Бельгия): широта 50.10 долгота 4.60 высота над уровнем моря 231 м.

В архиве по умолчанию представлена погода в Дурбе за последнюю неделю. Архивные данные за месяц целиком и за предыдущие месяцы, начиная с января 2011 года, Вы можете получить, выбрав интересующий диапазон дат из раскрывающегося списка и нажав кнопку "Ввод!".


*Определитесь, кто Вы:
робот инопланетянин человек

Внимание! Время в таблицах - всемирное. Для получения местного времени необходимо прибавить поправку, которая равна 1 ч.

Смотрите также архив погоды в соседних городах и на ближайших метеорологических станциях:

Погода во Флорене (Бельгия) (15 км)
Погода в Чарвилле (Франция) (36 км)
Погода в Шарлеруа (Бельгия) (43 км)
Погода в Гумане (Бельгия) (48 км)
Погода в Сент-Губерте (Бельгия) (58 км)
Погода в Эрнаже (Бельгия) (64 км)
Погода в Бовешене (Бельгия) (73 км)
Погода в Шьевре (Бельгия) (76 км)
Погода в Уккеле (Бельгия) (80 км)
Погода в Бьерсете (Бельгия) (86 км)

Пояснения к столбцам:

Ветер - указаны скорость ветра в м/с - средняя за 10 мин, порывы в срок и между сроками (в фигурных скобках) и направление, откуда дует ветер: С - северный, СВ - северо-восточный, В - восточный, ЮВ - юго-восточный, Ю - южный, ЮЗ - юго-западный, З - западный, СЗ - северо-западный.
Видимость - горизонтальная дальность видимости в метрах или километрах. При видимости от 1 до 10 км при отсутствии осадков обычно наблюдается дымка, при ухудшении видимости до 1 км и менее - туман. В сухую погоду видимость может ухудшаться дымом, пылью или мглою.
Явления - указаны атмосферные явления, наблюдавшиеся в срок или в последний час перед сроком; фигурными скобками обозначены явления, наблюдавшиеся между сроками (за 1-3 часа до срока); квадратными скобками обозначены град или гололедные отложения с указанием их диаметра в мм.
Облачность - указаны через наклонную черту общая и нижняя облачность в баллах и высота нижней границы облаков в метрах; квадратными скобками обозначены формы облаков: Ci - перистые, Cs - перисто-слоистые, Cc - перисто-кучевые, Ac - высококучевые, As - высокослоистые, Sc - слоисто-кучевые, Ns - слоисто-дождевые, Cu - кучевые, Cb - кучево-дождевые. Подробнее классификацию облаков см. в Атласе облаков (PDF).
T - Температура воздуха - температура, измеренная на высоте 2 м над землей.
Td - Температура точки росы - температура, при понижении до которой содержащийся в воздухе водяной пар достигнет насыщения.
f - Относительная влажность воздуха - влажноcть воздуха, измеренная на высоте 2 м над землей.
Te - Эффективная температура - температура, которую ощущает одетый по сезону человек в тени. Характеристика душности погоды. При расчете учитывается влияние влажности воздуха и скорости ветра на теплоощущения человека.
Tes - Эффективная температура на солнце - температура, которую ощущает человек, с поправкой на солнечный нагрев. Характеристика знойности погоды. Зависит от высоты солнца над горизонтом, облачности и скорости ветра. Ночью, в пасмурную погоду, а также при ветре 12 м/с и более поправка равна нулю.
P - Атмосферное давление - приведенное к уровню моря атмосферное давление.
Po - Атмосферное давление - измеренное на уровне метеостанции атмосферное давление.
Tmin - Минимальная температура - минимум температуры воздуха на высоте 2 м над землей.
Tmax - Максимальная температура - максимум температуры воздуха на высоте 2 м над землей.
R - Количество осадков - Количество выпавших осадков за период времени, мм. При наведении курсора мыши на число - период времени, за который выпало указанное количество осадков.
R24 - Количество осадков - Количество выпавших осадков за 24 часа, мм.
S - Снежный покров - Высота снежного покрова, см. При наведении курсора мыши на число - состояние снежного покрова и степень покрытия местности в баллах.